Terminal Aerodrome Forecast
Issued by NWS Detroit/Pontiac, MI

Home | Current Version | Previous Version | Text Only | Print | Product List | Glossary On
Versions: 1 2 3 4 5 6 7 8 9 10 11 12 13 14 15 16 17 18 19
000
FTUS43 KDTX 171915 AAA
TAFFNT
TAF AMD
KFNT 171915Z 1719/1818 24006KT 1/2SM FG OVC002
      TEMPO 1719/1720 1/4SM FG OVC002
     FM172000 24012KT 2SM BR OVC004
     FM180400 27006KT 3SM -RA BR OVC008
     FM181400 26006KT 5SM BR OVC015=

USA.gov is the U.S. government's official web portal to all federal, state and local government web resources and services.